iso_date,epoch_date,Year,Hour,Min,DOY,POS_DOY,Lat,Lon,BP,Ts,Ta,has_bp,has_ts,has_ta,BuoyID,Buoy_Type,Buoy_Owner,Logistics,Hemisphere
2020-07-06T18:04:01Z,1594058642,2020,18,4,188.7528,188.7528,56.716,-49.885,-999.00,7.55,-999.0,no,yes,no,300234068245270,SVPGHI,AOML,UNKNOWN,North
2020-07-06T19:01:03Z,1594062063,2020,19,1,188.7924,188.7924,56.719,-49.886,-999.00,7.59,-999.0,no,yes,no,300234068245270,SVPGHI,AOML,UNKNOWN,North
2020-07-06T19:59:57Z,1594065597,2020,20,0,188.8333,188.8333,56.724,-49.89,-999.00,7.59,-999.0,no,yes,no,300234068245270,SVPGHI,AOML,UNKNOWN,North
2020-07-06T21:00:00Z,1594069200,2020,21,0,188.875,188.875,56.727,-49.894,-999.00,7.56,-999.0,no,yes,no,300234068245270,SVPGHI,AOML,UNKNOWN,North
2020-07-06T22:00:02Z,1594072803,2020,22,0,188.9167,188.9167,56.731,-49.9,-999.00,7.54,-999.0,no,yes,no,300234068245270,SVPGHI,AOML,UNKNOWN,North
2020-07-06T22:59:57Z,1594076397,2020,23,0,188.9583,188.9583,56.736,-49.901,-999.00,7.52,-999.0,no,yes,no,300234068245270,SVPGHI,AOML,UNKNOWN,North
2020-07-07T00:04:01Z,1594080242,2020,0,4,189.0028,189.0028,56.738,-49.898,-999.00,7.5,-999.0,no,yes,no,300234068245270,SVPGHI,AOML,UNKNOWN,North
2020-07-07T01:59:57Z,1594087197,2020,2,0,189.0833,189.0833,56.739,-49.895,-999.00,7.45,-999.0,no,yes,no,300234068245270,SVPGHI,AOML,UNKNOWN,North
2020-07-07T03:04:01Z,1594091042,2020,3,4,189.1278,189.1278,56.738,-49.892,-999.00,7.43,-999.0,no,yes,no,300234068245270,SVPGHI,AOML,UNKNOWN,North
2020-07-07T04:03:56Z,1594094636,2020,4,4,189.1694,189.1694,56.738,-49.893,-999.00,7.42,-999.0,no,yes,no,300234068245270,SVPGHI,AOML,UNKNOWN,North
2020-07-07T05:03:59Z,1594098239,2020,5,4,189.2111,189.2111,56.736,-49.914,-999.00,7.41,-999.0,no,yes,no,300234068245270,SVPGHI,AOML,UNKNOWN,North
2020-07-07T06:04:01Z,1594101842,2020,6,4,189.2528,189.2528,56.739,-49.898,-999.00,7.4,-999.0,no,yes,no,300234068245270,SVPGHI,AOML,UNKNOWN,North
2020-07-07T07:00:02Z,1594105203,2020,7,0,189.2917,189.2917,56.74,-49.903,-999.00,7.4,-999.0,no,yes,no,300234068245270,SVPGHI,AOML,UNKNOWN,North
2020-07-07T07:59:57Z,1594108797,2020,8,0,189.3333,189.3333,56.742,-49.91,-999.00,7.39,-999.0,no,yes,no,300234068245270,SVPGHI,AOML,UNKNOWN,North
2020-07-07T09:00:00Z,1594112400,2020,9,0,189.375,189.375,56.75,-49.915,-999.00,7.4,-999.0,no,yes,no,300234068245270,SVPGHI,AOML,UNKNOWN,North
2020-07-07T10:00:02Z,1594116003,2020,10,0,189.4167,189.4167,56.749,-49.924,-999.00,7.42,-999.0,no,yes,no,300234068245270,SVPGHI,AOML,UNKNOWN,North
2020-07-07T10:59:57Z,1594119597,2020,11,0,189.4583,189.4583,56.755,-49.932,-999.00,7.44,-999.0,no,yes,no,300234068245270,SVPGHI,AOML,UNKNOWN,North
2020-07-07T12:00:00Z,1594123200,2020,12,0,189.5,189.5,56.759,-49.935,-999.00,7.49,-999.0,no,yes,no,300234068245270,SVPGHI,AOML,UNKNOWN,North
2020-07-07T13:00:02Z,1594126803,2020,13,0,189.5417,189.5417,56.762,-49.938,-999.00,7.6,-999.0,no,yes,no,300234068245270,SVPGHI,AOML,UNKNOWN,North
2020-07-07T13:59:57Z,1594130397,2020,14,0,189.5833,189.5833,56.765,-49.938,-999.00,7.7,-999.0,no,yes,no,300234068245270,SVPGHI,AOML,UNKNOWN,North
2020-07-07T15:00:00Z,1594134000,2020,15,0,189.625,189.625,56.766,-49.937,-999.00,7.87,-999.0,no,yes,no,300234068245270,SVPGHI,AOML,UNKNOWN,North
2020-07-07T16:01:03Z,1594137663,2020,16,1,189.6674,189.6674,56.771,-49.935,-999.00,7.98,-999.0,no,yes,no,300234068245270,SVPGHI,AOML,UNKNOWN,North
2020-07-07T16:59:57Z,1594141197,2020,17,0,189.7083,189.7083,56.774,-49.933,-999.00,8.01,-999.0,no,yes,no,300234068245270,SVPGHI,AOML,UNKNOWN,North
2020-07-07T18:00:00Z,1594144800,2020,18,0,189.75,189.75,56.776,-49.93,-999.00,8.14,-999.0,no,yes,no,300234068245270,SVPGHI,AOML,UNKNOWN,North
2020-07-07T19:00:02Z,1594148403,2020,19,0,189.7917,189.7917,56.779,-49.931,-999.00,8.39,-999.0,no,yes,no,300234068245270,SVPGHI,AOML,UNKNOWN,North
2020-07-07T21:00:00Z,1594155600,2020,21,0,189.875,189.875,56.783,-49.941,-999.00,8.83,-999.0,no,yes,no,300234068245270,SVPGHI,AOML,UNKNOWN,North
2020-07-07T22:00:02Z,1594159203,2020,22,0,189.9167,189.9167,56.785,-49.949,-999.00,8.87,-999.0,no,yes,no,300234068245270,SVPGHI,AOML,UNKNOWN,North
2020-07-07T22:59:57Z,1594162797,2020,23,0,189.9583,189.9583,56.788,-49.958,-999.00,8.72,-999.0,no,yes,no,300234068245270,SVPGHI,AOML,UNKNOWN,North
2020-07-08T00:00:00Z,1594166400,2020,0,0,190.0,190.0,56.792,-49.967,-999.00,8.54,-999.0,no,yes,no,300234068245270,SVPGHI,AOML,UNKNOWN,North
2020-07-08T01:01:03Z,1594170063,2020,1,1,190.0424,190.0424,56.797,-49.974,-999.00,8.27,-999.0,no,yes,no,300234068245270,SVPGHI,AOML,UNKNOWN,North
2020-07-08T01:59:57Z,1594173597,2020,2,0,190.0833,190.0833,56.803,-49.978,-999.00,8.22,-999.0,no,yes,no,300234068245270,SVPGHI,AOML,UNKNOWN,North
2020-07-08T03:00:00Z,1594177200,2020,3,0,190.125,190.125,56.808,-49.977,-999.00,8.1,-999.0,no,yes,no,300234068245270,SVPGHI,AOML,UNKNOWN,North
2020-07-08T04:00:02Z,1594180803,2020,4,0,190.1667,190.1667,56.813,-49.974,-999.00,8.01,-999.0,no,yes,no,300234068245270,SVPGHI,AOML,UNKNOWN,North
2020-07-08T04:59:57Z,1594184397,2020,5,0,190.2083,190.2083,56.817,-49.97,-999.00,7.98,-999.0,no,yes,no,300234068245270,SVPGHI,AOML,UNKNOWN,North
2020-07-08T06:00:00Z,1594188000,2020,6,0,190.25,190.25,56.82,-49.966,-999.00,7.93,-999.0,no,yes,no,300234068245270,SVPGHI,AOML,UNKNOWN,North
2020-07-08T07:01:03Z,1594191663,2020,7,1,190.2924,190.2924,56.821,-49.961,-999.00,7.9,-999.0,no,yes,no,300234068245270,SVPGHI,AOML,UNKNOWN,North
2020-07-08T08:00:57Z,1594195258,2020,8,1,190.334,190.334,56.824,-49.958,-999.00,7.87,-999.0,no,yes,no,300234068245270,SVPGHI,AOML,UNKNOWN,North
2020-07-08T09:04:01Z,1594199042,2020,9,4,190.3778,190.3778,56.833,-49.962,-999.00,7.81,-999.0,no,yes,no,300234068245270,SVPGHI,AOML,UNKNOWN,North
2020-07-08T10:01:03Z,1594202463,2020,10,1,190.4174,190.4174,56.827,-49.97,-999.00,7.78,-999.0,no,yes,no,300234068245270,SVPGHI,AOML,UNKNOWN,North
2020-07-08T11:03:59Z,1594206239,2020,11,4,190.4611,190.4611,56.834,-49.976,-999.00,7.77,-999.0,no,yes,no,300234068245270,SVPGHI,AOML,UNKNOWN,North
2020-07-08T12:00:00Z,1594209600,2020,12,0,190.5,190.5,56.838,-49.98,-999.00,7.81,-999.0,no,yes,no,300234068245270,SVPGHI,AOML,UNKNOWN,North
2020-07-08T13:00:02Z,1594213203,2020,13,0,190.5417,190.5417,56.843,-49.983,-999.00,7.85,-999.0,no,yes,no,300234068245270,SVPGHI,AOML,UNKNOWN,North
2020-07-08T13:59:57Z,1594216797,2020,14,0,190.5833,190.5833,56.849,-49.987,-999.00,7.9,-999.0,no,yes,no,300234068245270,SVPGHI,AOML,UNKNOWN,North
2020-07-08T15:01:00Z,1594220460,2020,15,1,190.6257,190.6257,56.851,-49.98,-999.00,7.96,-999.0,no,yes,no,300234068245270,SVPGHI,AOML,UNKNOWN,North
2020-07-08T16:01:03Z,1594224063,2020,16,1,190.6674,190.6674,56.853,-49.977,-999.00,8.01,-999.0,no,yes,no,300234068245270,SVPGHI,AOML,UNKNOWN,North
2020-07-08T16:59:57Z,1594227597,2020,17,0,190.7083,190.7083,56.857,-49.976,-999.00,8.04,-999.0,no,yes,no,300234068245270,SVPGHI,AOML,UNKNOWN,North
2020-07-08T18:04:01Z,1594231442,2020,18,4,190.7528,190.7528,56.859,-49.972,-999.00,8.1,-999.0,no,yes,no,300234068245270,SVPGHI,AOML,UNKNOWN,North
2020-07-08T19:00:02Z,1594234803,2020,19,0,190.7917,190.7917,56.862,-49.974,-999.00,8.12,-999.0,no,yes,no,300234068245270,SVPGHI,AOML,UNKNOWN,North
2020-07-08T19:59:57Z,1594238397,2020,20,0,190.8333,190.8333,56.868,-49.971,-999.00,8.17,-999.0,no,yes,no,300234068245270,SVPGHI,AOML,UNKNOWN,North
2020-07-08T21:00:00Z,1594242000,2020,21,0,190.875,190.875,56.874,-49.97,-999.00,8.2,-999.0,no,yes,no,300234068245270,SVPGHI,AOML,UNKNOWN,North
2020-07-08T22:00:02Z,1594245603,2020,22,0,190.9167,190.9167,56.878,-49.975,-999.00,8.19,-999.0,no,yes,no,300234068245270,SVPGHI,AOML,UNKNOWN,North
2020-07-08T22:59:57Z,1594249197,2020,23,0,190.9583,190.9583,56.882,-49.975,-999.00,8.16,-999.0,no,yes,no,300234068245270,SVPGHI,AOML,UNKNOWN,North
2020-07-09T00:00:00Z,1594252800,2020,0,0,191.0,191.0,56.886,-49.976,-999.00,8.14,-999.0,no,yes,no,300234068245270,SVPGHI,AOML,UNKNOWN,North
2020-07-09T01:00:02Z,1594256403,2020,1,0,191.0417,191.0417,56.89,-49.976,-999.00,8.13,-999.0,no,yes,no,300234068245270,SVPGHI,AOML,UNKNOWN,North
2020-07-09T01:59:57Z,1594259997,2020,2,0,191.0833,191.0833,56.894,-49.978,-999.00,8.13,-999.0,no,yes,no,300234068245270,SVPGHI,AOML,UNKNOWN,North
2020-07-09T03:00:00Z,1594263600,2020,3,0,191.125,191.125,56.896,-49.977,-999.00,8.13,-999.0,no,yes,no,300234068245270,SVPGHI,AOML,UNKNOWN,North
2020-07-09T04:02:55Z,1594267376,2020,4,3,191.1687,191.1687,56.9,-49.974,-999.00,8.1,-999.0,no,yes,no,300234068245270,SVPGHI,AOML,UNKNOWN,North
2020-07-09T05:03:59Z,1594271039,2020,5,4,191.2111,191.2111,56.904,-49.968,-999.00,8.09,-999.0,no,yes,no,300234068245270,SVPGHI,AOML,UNKNOWN,North
2020-07-09T06:00:00Z,1594274400,2020,6,0,191.25,191.25,56.907,-49.961,-999.00,8.08,-999.0,no,yes,no,300234068245270,SVPGHI,AOML,UNKNOWN,North
2020-07-09T07:00:02Z,1594278003,2020,7,0,191.2917,191.2917,56.911,-49.955,-999.00,8.06,-999.0,no,yes,no,300234068245270,SVPGHI,AOML,UNKNOWN,North
2020-07-09T07:59:57Z,1594281597,2020,8,0,191.3333,191.3333,56.914,-49.937,-999.00,8.05,-999.0,no,yes,no,300234068245270,SVPGHI,AOML,UNKNOWN,North
2020-07-09T09:04:01Z,1594285442,2020,9,4,191.3778,191.3778,56.92,-49.944,-999.00,8.04,-999.0,no,yes,no,300234068245270,SVPGHI,AOML,UNKNOWN,North
2020-07-09T10:03:56Z,1594289036,2020,10,4,191.4194,191.4194,56.924,-49.936,-999.00,8.05,-999.0,no,yes,no,300234068245270,SVPGHI,AOML,UNKNOWN,North
2020-07-09T10:59:57Z,1594292397,2020,11,0,191.4583,191.4583,56.923,-49.934,-999.00,8.06,-999.0,no,yes,no,300234068245270,SVPGHI,AOML,UNKNOWN,North
2020-07-09T12:00:00Z,1594296000,2020,12,0,191.5,191.5,56.928,-49.93,-999.00,8.06,-999.0,no,yes,no,300234068245270,SVPGHI,AOML,UNKNOWN,North
2020-07-09T13:00:02Z,1594299603,2020,13,0,191.5417,191.5417,56.931,-49.927,-999.00,8.05,-999.0,no,yes,no,300234068245270,SVPGHI,AOML,UNKNOWN,North
2020-07-09T13:59:57Z,1594303197,2020,14,0,191.5833,191.5833,56.933,-49.924,-999.00,8.04,-999.0,no,yes,no,300234068245270,SVPGHI,AOML,UNKNOWN,North
2020-07-09T15:00:00Z,1594306800,2020,15,0,191.625,191.625,56.933,-49.921,-999.00,8.04,-999.0,no,yes,no,300234068245270,SVPGHI,AOML,UNKNOWN,North
2020-07-09T16:01:03Z,1594310463,2020,16,1,191.6674,191.6674,56.935,-49.917,-999.00,8.06,-999.0,no,yes,no,300234068245270,SVPGHI,AOML,UNKNOWN,North
2020-07-09T16:59:57Z,1594313997,2020,17,0,191.7083,191.7083,56.939,-49.913,-999.00,8.06,-999.0,no,yes,no,300234068245270,SVPGHI,AOML,UNKNOWN,North
2020-07-09T18:04:01Z,1594317842,2020,18,4,191.7528,191.7528,56.942,-49.908,-999.00,8.05,-999.0,no,yes,no,300234068245270,SVPGHI,AOML,UNKNOWN,North
2020-07-09T19:03:56Z,1594321436,2020,19,4,191.7944,191.7944,56.943,-49.91,-999.00,8.04,-999.0,no,yes,no,300234068245270,SVPGHI,AOML,UNKNOWN,North
2020-07-09T20:00:57Z,1594324858,2020,20,1,191.834,191.834,56.951,-49.902,-999.00,8.05,-999.0,no,yes,no,300234068245270,SVPGHI,AOML,UNKNOWN,North
2020-07-09T21:01:00Z,1594328460,2020,21,1,191.8757,191.8757,56.956,-49.896,-999.00,8.05,-999.0,no,yes,no,300234068245270,SVPGHI,AOML,UNKNOWN,North
2020-07-09T22:00:02Z,1594332003,2020,22,0,191.9167,191.9167,56.961,-49.9,-999.00,8.05,-999.0,no,yes,no,300234068245270,SVPGHI,AOML,UNKNOWN,North
2020-07-09T23:00:57Z,1594335658,2020,23,1,191.959,191.959,56.962,-49.895,-999.00,8.05,-999.0,no,yes,no,300234068245270,SVPGHI,AOML,UNKNOWN,North
2020-07-10T00:00:00Z,1594339200,2020,0,0,192.0,192.0,56.969,-49.896,-999.00,8.04,-999.0,no,yes,no,300234068245270,SVPGHI,AOML,UNKNOWN,North
2020-07-10T01:00:02Z,1594342803,2020,1,0,192.0417,192.0417,56.975,-49.897,-999.00,8.03,-999.0,no,yes,no,300234068245270,SVPGHI,AOML,UNKNOWN,North
2020-07-10T01:59:57Z,1594346397,2020,2,0,192.0833,192.0833,56.981,-49.898,-999.00,8.03,-999.0,no,yes,no,300234068245270,SVPGHI,AOML,UNKNOWN,North
2020-07-10T03:01:00Z,1594350060,2020,3,1,192.1257,192.1257,56.987,-49.892,-999.00,8.03,-999.0,no,yes,no,300234068245270,SVPGHI,AOML,UNKNOWN,North
2020-07-10T04:02:03Z,1594353724,2020,4,2,192.1681,192.1681,56.992,-49.886,-999.00,8.02,-999.0,no,yes,no,300234068245270,SVPGHI,AOML,UNKNOWN,North
2020-07-10T05:03:59Z,1594357439,2020,5,4,192.2111,192.2111,56.996,-49.877,-999.00,8.02,-999.0,no,yes,no,300234068245270,SVPGHI,AOML,UNKNOWN,North
2020-07-10T06:01:00Z,1594360860,2020,6,1,192.2507,192.2507,56.999,-49.868,-999.00,8.01,-999.0,no,yes,no,300234068245270,SVPGHI,AOML,UNKNOWN,North
2020-07-10T07:00:02Z,1594364403,2020,7,0,192.2917,192.2917,57.001,-49.857,-999.00,8.0,-999.0,no,yes,no,300234068245270,SVPGHI,AOML,UNKNOWN,North
2020-07-10T08:03:59Z,1594368239,2020,8,4,192.3361,192.3361,-90.0,-180.0,-999.00,8.0,-999.0,no,yes,no,300234068245270,SVPGHI,AOML,UNKNOWN,North
2020-07-10T09:04:01Z,1594371842,2020,9,4,192.3778,192.3778,57.01,-49.841,-999.00,8.0,-999.0,no,yes,no,300234068245270,SVPGHI,AOML,UNKNOWN,North
2020-07-10T10:03:56Z,1594375436,2020,10,4,192.4194,192.4194,57.016,-49.841,-999.00,8.0,-999.0,no,yes,no,300234068245270,SVPGHI,AOML,UNKNOWN,North
2020-07-10T11:00:57Z,1594378858,2020,11,1,192.459,192.459,57.018,-49.84,-999.00,8.0,-999.0,no,yes,no,300234068245270,SVPGHI,AOML,UNKNOWN,North
2020-07-10T12:00:00Z,1594382400,2020,12,0,192.5,192.5,57.024,-49.835,-999.00,8.0,-999.0,no,yes,no,300234068245270,SVPGHI,AOML,UNKNOWN,North
2020-07-10T13:02:03Z,1594386124,2020,13,2,192.5431,192.5431,57.031,-49.83,-999.00,8.02,-999.0,no,yes,no,300234068245270,SVPGHI,AOML,UNKNOWN,North
2020-07-10T13:59:57Z,1594389597,2020,14,0,192.5833,192.5833,57.035,-49.827,-999.00,8.04,-999.0,no,yes,no,300234068245270,SVPGHI,AOML,UNKNOWN,North
2020-07-10T15:00:00Z,1594393200,2020,15,0,192.625,192.625,57.036,-49.821,-999.00,8.05,-999.0,no,yes,no,300234068245270,SVPGHI,AOML,UNKNOWN,North
2020-07-10T16:01:03Z,1594396863,2020,16,1,192.6674,192.6674,57.043,-49.814,-999.00,8.08,-999.0,no,yes,no,300234068245270,SVPGHI,AOML,UNKNOWN,North
2020-07-10T17:01:58Z,1594400518,2020,17,2,192.7097,192.7097,57.046,-49.807,-999.00,8.1,-999.0,no,yes,no,300234068245270,SVPGHI,AOML,UNKNOWN,North
2020-07-10T18:00:00Z,1594404000,2020,18,0,192.75,192.75,57.047,-49.8,-999.00,8.13,-999.0,no,yes,no,300234068245270,SVPGHI,AOML,UNKNOWN,North
2020-07-10T19:00:02Z,1594407603,2020,19,0,192.7917,192.7917,57.05,-49.795,-999.00,8.16,-999.0,no,yes,no,300234068245270,SVPGHI,AOML,UNKNOWN,North
2020-07-10T19:59:57Z,1594411197,2020,20,0,192.8333,192.8333,57.054,-49.79,-999.00,8.18,-999.0,no,yes,no,300234068245270,SVPGHI,AOML,UNKNOWN,North
2020-07-10T21:00:00Z,1594414800,2020,21,0,192.875,192.875,57.058,-49.786,-999.00,8.17,-999.0,no,yes,no,300234068245270,SVPGHI,AOML,UNKNOWN,North
2020-07-10T22:02:55Z,1594418576,2020,22,3,192.9187,192.9187,57.063,-49.784,-999.00,8.16,-999.0,no,yes,no,300234068245270,SVPGHI,AOML,UNKNOWN,North
2020-07-10T23:00:57Z,1594422058,2020,23,1,192.959,192.959,57.069,-49.78,-999.00,8.15,-999.0,no,yes,no,300234068245270,SVPGHI,AOML,UNKNOWN,North
2020-07-11T00:00:00Z,1594425600,2020,0,0,193.0,193.0,57.076,-49.777,-999.00,8.14,-999.0,no,yes,no,300234068245270,SVPGHI,AOML,UNKNOWN,North
2020-07-11T01:02:55Z,1594429376,2020,1,3,193.0437,193.0437,57.083,-49.773,-999.00,8.13,-999.0,no,yes,no,300234068245270,SVPGHI,AOML,UNKNOWN,North
2020-07-11T02:00:57Z,1594432858,2020,2,1,193.084,193.084,57.088,-49.768,-999.00,8.13,-999.0,no,yes,no,300234068245270,SVPGHI,AOML,UNKNOWN,North
2020-07-11T03:00:00Z,1594436400,2020,3,0,193.125,193.125,57.091,-49.76,-999.00,8.13,-999.0,no,yes,no,300234068245270,SVPGHI,AOML,UNKNOWN,North
2020-07-11T04:00:02Z,1594440003,2020,4,0,193.1667,193.1667,57.094,-49.752,-999.00,8.13,-999.0,no,yes,no,300234068245270,SVPGHI,AOML,UNKNOWN,North
2020-07-11T05:01:58Z,1594443718,2020,5,2,193.2097,193.2097,57.097,-49.741,-999.00,8.12,-999.0,no,yes,no,300234068245270,SVPGHI,AOML,UNKNOWN,North
2020-07-11T06:00:00Z,1594447200,2020,6,0,193.25,193.25,57.099,-49.731,-999.00,8.12,-999.0,no,yes,no,300234068245270,SVPGHI,AOML,UNKNOWN,North
2020-07-11T07:00:02Z,1594450803,2020,7,0,193.2917,193.2917,57.101,-49.722,-999.00,8.12,-999.0,no,yes,no,300234068245270,SVPGHI,AOML,UNKNOWN,North
2020-07-11T08:01:58Z,1594454518,2020,8,2,193.3347,193.3347,57.103,-49.714,-999.00,8.12,-999.0,no,yes,no,300234068245270,SVPGHI,AOML,UNKNOWN,North
2020-07-11T09:00:00Z,1594458000,2020,9,0,193.375,193.375,57.105,-49.706,-999.00,8.13,-999.0,no,yes,no,300234068245270,SVPGHI,AOML,UNKNOWN,North
2020-07-11T10:00:02Z,1594461603,2020,10,0,193.4167,193.4167,57.109,-49.701,-999.00,8.14,-999.0,no,yes,no,300234068245270,SVPGHI,AOML,UNKNOWN,North
2020-07-11T10:59:57Z,1594465197,2020,11,0,193.4583,193.4583,57.113,-49.696,-999.00,8.16,-999.0,no,yes,no,300234068245270,SVPGHI,AOML,UNKNOWN,North
2020-07-11T12:00:00Z,1594468800,2020,12,0,193.5,193.5,57.118,-49.692,-999.00,8.19,-999.0,no,yes,no,300234068245270,SVPGHI,AOML,UNKNOWN,North
2020-07-11T13:01:03Z,1594472463,2020,13,1,193.5424,193.5424,57.123,-49.687,-999.00,8.23,-999.0,no,yes,no,300234068245270,SVPGHI,AOML,UNKNOWN,North
2020-07-11T13:59:57Z,1594475997,2020,14,0,193.5833,193.5833,57.127,-49.682,-999.00,8.23,-999.0,no,yes,no,300234068245270,SVPGHI,AOML,UNKNOWN,North
2020-07-11T15:00:00Z,1594479600,2020,15,0,193.625,193.625,57.135,-49.676,-999.00,8.28,-999.0,no,yes,no,300234068245270,SVPGHI,AOML,UNKNOWN,North
2020-07-11T16:01:03Z,1594483263,2020,16,1,193.6674,193.6674,57.143,-49.663,-999.00,8.32,-999.0,no,yes,no,300234068245270,SVPGHI,AOML,UNKNOWN,North
2020-07-11T17:00:57Z,1594486858,2020,17,1,193.709,193.709,57.146,-49.647,-999.00,8.37,-999.0,no,yes,no,300234068245270,SVPGHI,AOML,UNKNOWN,North
2020-07-11T18:00:00Z,1594490400,2020,18,0,193.75,193.75,57.146,-49.635,-999.00,8.37,-999.0,no,yes,no,300234068245270,SVPGHI,AOML,UNKNOWN,North
2020-07-11T19:00:02Z,1594494003,2020,19,0,193.7917,193.7917,57.147,-49.623,-999.00,8.36,-999.0,no,yes,no,300234068245270,SVPGHI,AOML,UNKNOWN,North
2020-07-11T20:00:57Z,1594497658,2020,20,1,193.834,193.834,57.148,-49.614,-999.00,8.34,-999.0,no,yes,no,300234068245270,SVPGHI,AOML,UNKNOWN,North
2020-07-11T21:00:00Z,1594501200,2020,21,0,193.875,193.875,57.15,-49.605,-999.00,8.34,-999.0,no,yes,no,300234068245270,SVPGHI,AOML,UNKNOWN,North
2020-07-11T22:00:02Z,1594504803,2020,22,0,193.9167,193.9167,57.153,-49.6,-999.00,8.32,-999.0,no,yes,no,300234068245270,SVPGHI,AOML,UNKNOWN,North
2020-07-11T23:03:59Z,1594508639,2020,23,4,193.9611,193.9611,57.158,-49.595,-999.00,8.29,-999.0,no,yes,no,300234068245270,SVPGHI,AOML,UNKNOWN,North
2020-07-12T00:04:01Z,1594512242,2020,0,4,194.0028,194.0028,57.163,-49.589,-999.00,8.27,-999.0,no,yes,no,300234068245270,SVPGHI,AOML,UNKNOWN,North
2020-07-12T01:03:56Z,1594515836,2020,1,4,194.0444,194.0444,57.168,-49.588,-999.00,8.24,-999.0,no,yes,no,300234068245270,SVPGHI,AOML,UNKNOWN,North
2020-07-12T02:03:59Z,1594519439,2020,2,4,194.0861,194.0861,-90.0,-180.0,-999.00,8.22,-999.0,no,yes,no,300234068245270,SVPGHI,AOML,UNKNOWN,North
2020-07-12T03:02:00Z,1594522921,2020,3,2,194.1264,194.1264,57.181,-49.564,-999.00,8.21,-999.0,no,yes,no,300234068245270,SVPGHI,AOML,UNKNOWN,North
2020-07-12T04:00:02Z,1594526403,2020,4,0,194.1667,194.1667,57.187,-49.552,-999.00,8.2,-999.0,no,yes,no,300234068245270,SVPGHI,AOML,UNKNOWN,North
2020-07-12T04:59:57Z,1594529997,2020,5,0,194.2083,194.2083,57.191,-49.535,-999.00,8.18,-999.0,no,yes,no,300234068245270,SVPGHI,AOML,UNKNOWN,North
2020-07-12T06:00:00Z,1594533600,2020,6,0,194.25,194.25,57.194,-49.516,-999.00,8.18,-999.0,no,yes,no,300234068245270,SVPGHI,AOML,UNKNOWN,North
2020-07-12T07:00:02Z,1594537203,2020,7,0,194.2917,194.2917,57.195,-49.499,-999.00,8.17,-999.0,no,yes,no,300234068245270,SVPGHI,AOML,UNKNOWN,North
2020-07-12T07:59:57Z,1594540797,2020,8,0,194.3333,194.3333,57.195,-49.483,-999.00,8.16,-999.0,no,yes,no,300234068245270,SVPGHI,AOML,UNKNOWN,North
2020-07-12T09:00:00Z,1594544400,2020,9,0,194.375,194.375,57.195,-49.468,-999.00,8.17,-999.0,no,yes,no,300234068245270,SVPGHI,AOML,UNKNOWN,North
2020-07-12T10:00:02Z,1594548003,2020,10,0,194.4167,194.4167,57.196,-49.454,-999.00,8.17,-999.0,no,yes,no,300234068245270,SVPGHI,AOML,UNKNOWN,North
2020-07-12T10:59:57Z,1594551597,2020,11,0,194.4583,194.4583,57.195,-49.443,-999.00,8.17,-999.0,no,yes,no,300234068245270,SVPGHI,AOML,UNKNOWN,North
2020-07-12T12:02:00Z,1594555321,2020,12,2,194.5014,194.5014,57.198,-49.436,-999.00,8.18,-999.0,no,yes,no,300234068245270,SVPGHI,AOML,UNKNOWN,North
2020-07-12T13:00:02Z,1594558803,2020,13,0,194.5417,194.5417,57.201,-49.43,-999.00,8.19,-999.0,no,yes,no,300234068245270,SVPGHI,AOML,UNKNOWN,North
2020-07-12T13:59:57Z,1594562397,2020,14,0,194.5833,194.5833,57.204,-49.425,-999.00,8.21,-999.0,no,yes,no,300234068245270,SVPGHI,AOML,UNKNOWN,North
2020-07-12T16:01:03Z,1594569663,2020,16,1,194.6674,194.6674,57.21,-49.409,-999.00,8.23,-999.0,no,yes,no,300234068245270,SVPGHI,AOML,UNKNOWN,North
2020-07-12T16:59:57Z,1594573197,2020,17,0,194.7083,194.7083,57.212,-49.399,-999.00,8.27,-999.0,no,yes,no,300234068245270,SVPGHI,AOML,UNKNOWN,North
2020-07-12T18:00:00Z,1594576800,2020,18,0,194.75,194.75,57.215,-49.387,-999.00,8.3,-999.0,no,yes,no,300234068245270,SVPGHI,AOML,UNKNOWN,North
2020-07-12T19:00:02Z,1594580403,2020,19,0,194.7917,194.7917,57.217,-49.374,-999.00,8.3,-999.0,no,yes,no,300234068245270,SVPGHI,AOML,UNKNOWN,North
2020-07-12T20:00:57Z,1594584058,2020,20,1,194.834,194.834,57.22,-49.354,-999.00,8.31,-999.0,no,yes,no,300234068245270,SVPGHI,AOML,UNKNOWN,North
2020-07-12T21:00:00Z,1594587600,2020,21,0,194.875,194.875,57.218,-49.339,-999.00,8.3,-999.0,no,yes,no,300234068245270,SVPGHI,AOML,UNKNOWN,North
2020-07-12T22:00:02Z,1594591203,2020,22,0,194.9167,194.9167,57.218,-49.327,-999.00,8.3,-999.0,no,yes,no,300234068245270,SVPGHI,AOML,UNKNOWN,North
2020-07-12T23:03:59Z,1594595039,2020,23,4,194.9611,194.9611,57.217,-49.314,-999.00,8.29,-999.0,no,yes,no,300234068245270,SVPGHI,AOML,UNKNOWN,North
2020-07-13T00:04:01Z,1594598642,2020,0,4,195.0028,195.0028,57.216,-49.304,-999.00,8.28,-999.0,no,yes,no,300234068245270,SVPGHI,AOML,UNKNOWN,North
2020-07-13T01:02:03Z,1594602124,2020,1,2,195.0431,195.0431,57.214,-49.296,-999.00,8.27,-999.0,no,yes,no,300234068245270,SVPGHI,AOML,UNKNOWN,North
2020-07-13T02:03:59Z,1594605839,2020,2,4,195.0861,195.0861,57.216,-49.294,-999.00,8.25,-999.0,no,yes,no,300234068245270,SVPGHI,AOML,UNKNOWN,North
2020-07-13T03:01:00Z,1594609260,2020,3,1,195.1257,195.1257,57.215,-49.28,-999.00,8.23,-999.0,no,yes,no,300234068245270,SVPGHI,AOML,UNKNOWN,North
2020-07-13T04:00:02Z,1594612803,2020,4,0,195.1667,195.1667,57.216,-49.273,-999.00,8.23,-999.0,no,yes,no,300234068245270,SVPGHI,AOML,UNKNOWN,North
2020-07-13T05:03:59Z,1594616639,2020,5,4,195.2111,195.2111,57.215,-49.261,-999.00,8.22,-999.0,no,yes,no,300234068245270,SVPGHI,AOML,UNKNOWN,North
2020-07-13T06:00:00Z,1594620000,2020,6,0,195.25,195.25,57.217,-49.249,-999.00,8.22,-999.0,no,yes,no,300234068245270,SVPGHI,AOML,UNKNOWN,North
2020-07-13T07:00:02Z,1594623603,2020,7,0,195.2917,195.2917,57.22,-49.23,-999.00,8.2,-999.0,no,yes,no,300234068245270,SVPGHI,AOML,UNKNOWN,North
2020-07-13T08:03:59Z,1594627439,2020,8,4,195.3361,195.3361,57.218,-49.217,-999.00,8.19,-999.0,no,yes,no,300234068245270,SVPGHI,AOML,UNKNOWN,North
2020-07-13T09:00:00Z,1594630800,2020,9,0,195.375,195.375,57.216,-49.2,-999.00,8.18,-999.0,no,yes,no,300234068245270,SVPGHI,AOML,UNKNOWN,North
2020-07-13T10:00:02Z,1594634403,2020,10,0,195.4167,195.4167,57.214,-49.181,-999.00,8.17,-999.0,no,yes,no,300234068245270,SVPGHI,AOML,UNKNOWN,North
2020-07-13T10:59:57Z,1594637997,2020,11,0,195.4583,195.4583,57.21,-49.164,-999.00,8.17,-999.0,no,yes,no,300234068245270,SVPGHI,AOML,UNKNOWN,North
2020-07-13T12:00:00Z,1594641600,2020,12,0,195.5,195.5,57.206,-49.155,-999.00,8.17,-999.0,no,yes,no,300234068245270,SVPGHI,AOML,UNKNOWN,North
2020-07-13T13:00:02Z,1594645203,2020,13,0,195.5417,195.5417,57.203,-49.148,-999.00,8.2,-999.0,no,yes,no,300234068245270,SVPGHI,AOML,UNKNOWN,North
2020-07-13T13:59:57Z,1594648797,2020,14,0,195.5833,195.5833,57.196,-49.146,-999.00,8.28,-999.0,no,yes,no,300234068245270,SVPGHI,AOML,UNKNOWN,North
2020-07-13T15:04:01Z,1594652642,2020,15,4,195.6278,195.6278,57.192,-49.143,-999.00,8.3,-999.0,no,yes,no,300234068245270,SVPGHI,AOML,UNKNOWN,North
2020-07-13T16:03:56Z,1594656236,2020,16,4,195.6694,195.6694,57.192,-49.147,-999.00,8.36,-999.0,no,yes,no,300234068245270,SVPGHI,AOML,UNKNOWN,North